Terug naar catalogus

SL-8 DEB

ActiefLEO
NORAD 57165·DEBRIS·🇷🇺 Russia

Gelanceerd Oct 12, 1983 vanaf Plesetsk Cosmodrome

Loading…

Volgende Passages (komende 24 uur)

TLE

VerouderendSource: Space-Track

Epoch: Sep 10, 2026, 05:57 UTC

1 57165U 83103C   26253.24846056  .00000093  00000-0  40549-4 0  9990
2 57165  74.0489 209.4045 0022500 296.2006  63.6834 14.36405611670763

Volg SL-8 DEB in realtime met AllMySat

Download on the App Store